Location: Wanzleben
(52.0609°N, 11.4408°E)
Time: 03:28:47
(UTC+00:00)

Cosmos 1782 Rocket - Pass Details

Date: 18 September 2020
Orbit: 607 x 632 km, 82.5° (Epoch: 22 October)

Event Time Altitude Azimuth Distance (km) Brightness Sun altitude
Rises 18:43:40 0° 202° (SSW) 2,887 7.0 -13.2°
Reaches altitude 10° 18:45:55 10° 207° (SSW) 1,990 6.2 -13.5°
Maximum altitude 18:50:14 54° 285° (WNW) 769 4.4 -14.2°
Drops below altitude 10° 18:54:38 10° 3° (N) 2,020 6.4 -14.8°
Sets 18:56:56 0° 8° (N) 2,935 7.2 -15.1°
